Flag for Canada Weather past 2 weeks in Prince George, British Columbia, Canada

Now
63 °F

Partly sunny.


Feels Like: 63 °F
Forecast: 52 / 76 °F
Wind: 2 mph from North

Location: Prince George

Current Time: Aug 2, 2015 at 10:29:06 AM

Latest Report: Aug 2, 2015 at 10:00 AM


Visibility: 9 mi

Pressure: 30.01 "Hg (28.05 "Hg at 573m altitude)

Humidity: 59%

Dew point: 48 °F

Location of Prince GeorgeLocation

Historic Weather in Prince George — Graph

°F

Prince George temperature yesterday

Maximum temperature yesterday: 75 °F (at 5:00 PM)
Minimum temperature yesterday: 43 °F (at 6:00 AM)
Average temperature yesterday: 61 °F

Past Weeks' High & Low Weather Summary

 TemperatureHumidityPressure
High82 °F (Jul 18, 4:00 PM)100% (Jul 23, 4:00 AM)30.27 "Hg (Jul 23, 4:00 AM)
Low41 °F (Jul 30, 4:00 AM)28% (Jul 19, 5:00 PM)29.75 "Hg (Jul 20, 5:00 PM)
Average59 °F70%29.99 "Hg
* Reported Jul 18 9:00 AM — Aug 2 9:00 AM, Prince George, Weather by CustomWeather, © 2015

Note: Actual official high and low records may vary slightly from our data, if they occured in-between our weather recording intervals... More about our weather records

Advertising

Prince George weather history for previous 24 hours

 ConditionsComfort  
Time TempWeatherWind HumidityBarometerVisibility
9:00 AM
Sun, Aug 2
57 °FBroken clouds.5 mph77%30.02 "Hg9 mi
8:00 AM55 °FPassing clouds.2 mph82%30.02 "Hg9 mi
7:00 AM52 °FPartly sunny.3 mph88%30.02 "Hg9 mi
6:00 AM48 °FClear.No wind94%30.01 "Hg9 mi
5:00 AM50 °FPassing clouds.2 mph94%30.01 "Hg9 mi
4:00 AM50 °FClear.No wind94%30.01 "Hg9 mi
3:00 AM52 °FPassing clouds.3 mph82%30.01 "Hg9 mi
2:00 AM50 °FPassing clouds.No wind88%30.02 "Hg9 mi
1:00 AM52 °FClear.2 mph82%30.02 "Hg9 mi
12:00 AM50 °FClear.2 mph88%30.02 "Hg9 mi
11:00 PM
Sat, Aug 1
54 °FClear.2 mph77%30.02 "Hg9 mi
10:00 PM57 °FSunny.No wind77%30.02 "Hg9 mi
9:00 PM64 °FSunny.2 mph64%30.01 "Hg9 mi
8:00 PM70 °FSunny.6 mph50%30.01 "Hg9 mi
7:00 PM73 °FSunny.3 mph38%30.01 "Hg9 mi
6:00 PM73 °FSunny.No wind38%30.03 "Hg9 mi
5:00 PM75 °FSunny.2 mph39%30.04 "Hg9 mi
4:00 PM72 °FScattered clouds.3 mph41%30.06 "Hg9 mi
3:00 PM72 °FScattered clouds.3 mph41%30.07 "Hg9 mi
2:00 PM72 °FPartly sunny.6 mph41%30.09 "Hg9 mi
1:00 PM70 °FSunny.2 mph43%30.10 "Hg9 mi
12:00 PM68 °FPassing clouds.2 mph49%30.11 "Hg9 mi
11:00 AM66 °FSunny.5 mph56%30.11 "Hg9 mi
10:00 AM63 °FSunny.6 mph64%30.11 "Hg9 mi
Weather by CustomWeather, © 2015

See weather overviewHow to use our weather pages